Weather History for New Haven, CT

Change the Weather History Date:

Monday, February 25, 2013

  Actual Average Record
Temperature  
Mean Temperature 38 °F -  
Max Temperature 43 °F 41 °F 30 °F (2014)
Min Temperature 32 °F 27 °F 23 °F (2014)
Degree Days  
Heating Degree Days 27    
Moisture  
Dew Point 26 °F    
Average Humidity 60    
Maximum Humidity 82    
Minimum Humidity 49    
Precipitation  
Precipitation 0.00 in - - ()
Sea Level Pressure  
Sea Level Pressure 30.11 in    
Wind  
Wind Speed 6 mph (NW)    
Max Wind Speed 14 mph    
Max Gust Speed 20 mph    
Visibility 10 miles    
Events      
Averages and records for this station are not official NWS values.
T = Trace of Precipitation, MM = Missing Value Source: NWS Daily Summary

Daily Weather History Graph

Daily Weather History Graph

Search for Another Location

Airport:

Trip Planner

Search our weather history database for the weather conditions in past years. The results will help you decide how hot, cold, wet, or windy it might be!

Date:

Astronomy

Feb. 25, 2013 Rise Set
Actual Time 6:31 AM EST 5:37 PM EST
Civil Twilight 6:03 AM EST 6:05 PM EST
Nautical Twilight 5:31 AM EST 6:37 PM EST
Astronomical Twilight 5:00 AM EST 7:09 PM EST
Moon 5:49 PM EST (2/25) 6:00 AM EST (2/25)
Length of Visible Light 12h 01m
Length of Day
11h 06m
Full, 100% of the Moon is Illuminated
Feb 25
Full
Feb 25
Full
Mar 4
Last Quarter
Mar 11
New
Mar 19
First Quarter

Hourly Weather History & Observations

Time (EST) Temp. Windchill Dew Point Humidity Pressure Visibility Wind Dir Wind Speed Gust Speed Precip Events Conditions
12:53 AM 36.0 °F 27.1 °F 24.1 °F 62% 29.94 in 10.0 mi North 13.8 mph 19.6 mph N/A   Overcast
1:53 AM 36.0 °F 30.3 °F 23.0 °F 59% 29.96 in 10.0 mi NNW 6.9 mph - N/A   Overcast
2:53 AM 35.1 °F 28.6 °F 23.0 °F 61% 29.97 in 10.0 mi NNW 8.1 mph - N/A   Overcast
3:53 AM 35.1 °F 30.1 °F 23.0 °F 61% 29.99 in 10.0 mi NNW 5.8 mph - N/A   Partly Cloudy
4:53 AM 34.0 °F 29.8 °F 21.9 °F 61% 30.01 in 10.0 mi NNW 4.6 mph - N/A   Clear
5:53 AM 33.1 °F 30.0 °F 23.0 °F 66% 30.04 in 10.0 mi NNW 3.5 mph - N/A   Clear
6:53 AM 34.0 °F 31.0 °F 23.0 °F 64% 30.06 in 10.0 mi NW 3.5 mph - N/A   Clear
7:53 AM 36.0 °F 32.1 °F 24.1 °F 62% 30.08 in 10.0 mi NNW 4.6 mph - N/A   Clear
8:53 AM 39.0 °F 34.8 °F 25.0 °F 57% 30.09 in 10.0 mi NNW 5.8 mph - N/A   Clear
9:53 AM 41.0 °F 35.2 °F 25.0 °F 53% 30.10 in 10.0 mi NNE 9.2 mph - N/A   Clear
10:53 AM 42.1 °F 37.7 °F 25.0 °F 51% 30.10 in 10.0 mi NNE 6.9 mph - N/A   Clear
11:53 AM 43.0 °F 40.3 °F 25.0 °F 49% 30.11 in 10.0 mi WSW 4.6 mph - N/A   Partly Cloudy
12:53 PM 43.0 °F 40.3 °F 27.0 °F 53% 30.11 in 10.0 mi WSW 4.6 mph - N/A   Partly Cloudy
1:53 PM 42.1 °F 37.7 °F 28.0 °F 58% 30.12 in 10.0 mi SSW 6.9 mph - N/A   Mostly Cloudy
2:53 PM 41.0 °F 36.4 °F 28.0 °F 60% 30.12 in 10.0 mi SSW 6.9 mph - N/A   Overcast
3:53 PM 41.0 °F 37.1 °F 28.0 °F 60% 30.14 in 10.0 mi SSW 5.8 mph - N/A   Overcast
4:53 PM 42.1 °F - 27.0 °F 55% 30.15 in 10.0 mi Calm Calm - N/A   Mostly Cloudy
5:53 PM 42.1 °F - 26.1 °F 53% 30.16 in 10.0 mi Calm Calm - N/A   Mostly Cloudy
6:53 PM 41.0 °F - 27.0 °F 57% 30.20 in 10.0 mi Calm Calm - N/A   Overcast
7:53 PM 41.0 °F 38.0 °F 28.0 °F 60% 30.22 in 10.0 mi NNE 4.6 mph - N/A   Overcast
8:53 PM 39.9 °F - 28.0 °F 63% 30.23 in 10.0 mi Calm Calm - N/A   Overcast
9:53 PM 37.9 °F - 28.9 °F 70% 30.24 in 10.0 mi Calm Calm - N/A   Overcast
10:53 PM 37.0 °F - 28.9 °F 73% 30.25 in 10.0 mi Calm Calm - N/A   Overcast
11:53 PM 32.0 °F 28.7 °F 27.0 °F 82% 30.25 in 10.0 mi North 3.5 mph - N/A   Clear